BAW433 EGLL-KJFK

Flight info

Callsign BAW433
Flight time 3h 30m
Altitude 55000
Route CPT DCT EMPAS/M077F360 DCT 5041N1500W 5050N2000W 5030N3000W 4916N4000W 4703N5000W 4610N5300W/N0449F360 4414N6000W/N0452F380 4246N6500W 4200N6700W DCT PLYMM PARCH4
Aircraft CONC/H-SDE2E3FGHIRYW/X

Departure

Time 2026-05-09 13:21
Airport London Heathrow Airport (EGLL)

Arrival

Time 2026-05-09 16:52
Airport John F. Kennedy International Airport (KJFK)
Time Latitude Longitude Altitude Speed Heading
2026-05-09 13:09 51.46322 -0.46302 89 ft 0 kts 270°
2026-05-09 13:09 51.46322 -0.46303 89 ft 0 kts 270°
2026-05-09 13:10 51.46322 -0.46327 89 ft 4 kts 270°
2026-05-09 13:10 51.46321 -0.46415 89 ft 11 kts 270°
2026-05-09 13:10 51.46321 -0.46587 87 ft 19 kts 270°
2026-05-09 13:10 51.46319 -0.46831 85 ft 21 kts 269°
2026-05-09 13:11 51.46320 -0.47060 83 ft 19 kts 271°
2026-05-09 13:11 51.46321 -0.47257 84 ft 14 kts 270°
2026-05-09 13:11 51.46330 -0.47392 86 ft 10 kts 281°
2026-05-09 13:11 51.46336 -0.47493 86 ft 8 kts 272°
2026-05-09 13:12 51.46333 -0.47589 85 ft 8 kts 255°
2026-05-09 13:12 51.46314 -0.47693 85 ft 10 kts 245°
2026-05-09 13:12 51.46274 -0.47808 84 ft 13 kts 240°
2026-05-09 13:12 51.46249 -0.47957 82 ft 15 kts 268°
2026-05-09 13:13 51.46251 -0.48127 82 ft 15 kts 271°
2026-05-09 13:13 51.46251 -0.48295 82 ft 15 kts 269°
2026-05-09 13:13 51.46249 -0.48469 82 ft 15 kts 270°
2026-05-09 13:13 51.46256 -0.48590 82 ft 4 kts 285°
2026-05-09 13:14 51.46262 -0.48621 82 ft 1 kts 288°
2026-05-09 13:16 51.46282 -0.48674 82 ft 0 kts 312°
2026-05-09 13:18 51.46291 -0.48689 82 ft 3 kts 318°
2026-05-09 13:18 51.46325 -0.48718 82 ft 6 kts 336°
2026-05-09 13:18 51.46365 -0.48731 82 ft 5 kts 21°
2026-05-09 13:18 51.46398 -0.48724 82 ft 4 kts 347°
2026-05-09 13:19 51.46429 -0.48735 82 ft 5 kts 355°
2026-05-09 13:19 51.46468 -0.48706 82 ft 8 kts 62°
2026-05-09 13:19 51.46478 -0.48598 83 ft 6 kts 91°
2026-05-09 13:19 51.46478 -0.48588 82 ft 0 kts 91°
2026-05-09 13:20 51.46479 -0.48417 82 ft 38 kts 90°
2026-05-09 13:20 51.46483 -0.47527 86 ft 119 kts 90°
2026-05-09 13:20 51.46491 -0.45771 86 ft 195 kts 90°
2026-05-09 13:20 51.46511 -0.43366 291 ft 236 kts 85°
2026-05-09 13:21 51.46612 -0.40540 675 ft 264 kts 86°
2026-05-09 13:21 51.46635 -0.37721 1077 ft 255 kts 106°
2026-05-09 13:21 51.45792 -0.35239 1498 ft 265 kts 140°
2026-05-09 13:21 51.44327 -0.33461 1923 ft 267 kts 140°
2026-05-09 13:22 51.42698 -0.31982 1962 ft 278 kts 168°
2026-05-09 13:22 51.40760 -0.31976 1732 ft 285 kts 201°
2026-05-09 13:22 51.39086 -0.33642 1632 ft 281 kts 221°
2026-05-09 13:23 51.33224 -0.42068 3486 ft 289 kts 207°
2026-05-09 13:23 51.31385 -0.43131 3845 ft 286 kts 176°
2026-05-09 13:24 51.29408 -0.43301 4247 ft 287 kts 196°
2026-05-09 13:24 51.27642 -0.44762 4534 ft 293 kts 230°
2026-05-09 13:24 51.26702 -0.47603 4882 ft 294 kts 269°
2026-05-09 13:24 51.26985 -0.50720 5525 ft 286 kts 301°
2026-05-09 13:25 51.27936 -0.53490 6279 ft 291 kts 301°
2026-05-09 13:25 51.28950 -0.56329 6937 ft 296 kts 301°
2026-05-09 13:25 51.30981 -0.61990 8191 ft 297 kts 301°
2026-05-09 13:26 51.32018 -0.64879 8836 ft 298 kts 300°
2026-05-09 13:26 51.33045 -0.67746 9480 ft 300 kts 300°
2026-05-09 13:26 51.34067 -0.70606 10114 ft 301 kts 300°
2026-05-09 13:26 51.35107 -0.73517 10747 ft 306 kts 299°
2026-05-09 13:27 51.36180 -0.76525 11329 ft 315 kts 299°
2026-05-09 13:27 51.37271 -0.79586 11927 ft 324 kts 299°
2026-05-09 13:27 51.38382 -0.82741 12534 ft 333 kts 296°
2026-05-09 13:27 51.39361 -0.86135 13156 ft 344 kts 293°
2026-05-09 13:28 51.40345 -0.89677 13784 ft 356 kts 294°
2026-05-09 13:28 51.41392 -0.93384 14302 ft 375 kts 293°
2026-05-09 13:28 51.42453 -0.97293 14798 ft 397 kts 293°
2026-05-09 13:28 51.43593 -1.01445 15193 ft 426 kts 293°
2026-05-09 13:29 51.44834 -1.06004 15230 ft 466 kts 293°
2026-05-09 13:29 51.46143 -1.10833 15065 ft 474 kts 293°
2026-05-09 13:29 51.47454 -1.15659 15032 ft 469 kts 293°
2026-05-09 13:29 51.48673 -1.20401 15453 ft 465 kts 285°
2026-05-09 13:30 51.49186 -1.25524 16086 ft 469 kts 265°
2026-05-09 13:30 51.48725 -1.30703 16843 ft 474 kts 260°
2026-05-09 13:30 51.48303 -1.35945 17447 ft 480 kts 265°
2026-05-09 13:30 51.48026 -1.41275 18052 ft 483 kts 263°
2026-05-09 13:31 51.47665 -1.46607 18612 ft 486 kts 264°
2026-05-09 13:31 51.47329 -1.52030 19167 ft 489 kts 264°
2026-05-09 13:31 51.46994 -1.57381 19723 ft 492 kts 264°
2026-05-09 13:31 51.46646 -1.62833 20284 ft 496 kts 264°
2026-05-09 13:32 51.46295 -1.68376 20837 ft 499 kts 263°
2026-05-09 13:32 51.45583 -1.79454 21984 ft 506 kts 263°
2026-05-09 13:32 51.45220 -1.85053 22552 ft 510 kts 263°
2026-05-09 13:33 51.44852 -1.90675 23125 ft 513 kts 263°
2026-05-09 13:33 51.44474 -1.96415 23702 ft 518 kts 263°
2026-05-09 13:33 51.44097 -2.02090 24291 ft 522 kts 263°
2026-05-09 13:33 51.43712 -2.07888 24894 ft 526 kts 263°
2026-05-09 13:34 51.43316 -2.13762 25496 ft 530 kts 263°
2026-05-09 13:34 51.42918 -2.19635 26087 ft 534 kts 263°
2026-05-09 13:34 51.42513 -2.25560 26678 ft 538 kts 263°
2026-05-09 13:34 51.42098 -2.31576 27142 ft 542 kts 262°
2026-05-09 13:35 51.41678 -2.37606 27538 ft 544 kts 262°
2026-05-09 13:35 51.41259 -2.43594 27866 ft 547 kts 262°
2026-05-09 13:35 51.40832 -2.49643 27993 ft 548 kts 262°
2026-05-09 13:35 51.40401 -2.55692 28077 ft 548 kts 262°
2026-05-09 13:36 51.39529 -2.67830 28029 ft 547 kts 262°
2026-05-09 13:36 51.38644 -2.79974 28034 ft 548 kts 261°
2026-05-09 13:37 51.37753 -2.92007 28044 ft 548 kts 262°
2026-05-09 13:37 51.36949 -3.04099 28042 ft 550 kts 269°
2026-05-09 13:38 51.37019 -3.16498 28301 ft 584 kts 267°
2026-05-09 13:38 51.36941 -3.23197 28020 ft 615 kts 268°
2026-05-09 13:38 51.36915 -3.30035 28717 ft 619 kts 267°
2026-05-09 13:39 51.36849 -3.36849 30518 ft 615 kts 268°
2026-05-09 13:39 51.36794 -3.43761 30999 ft 633 kts 268°
2026-05-09 13:39 51.36720 -3.50911 30864 ft 654 kts 268°
2026-05-09 13:39 51.36647 -3.58294 31062 ft 667 kts 268°
2026-05-09 13:40 51.36565 -3.65651 31819 ft 672 kts 267°
2026-05-09 13:40 51.36478 -3.73233 32188 ft 689 kts 267°
2026-05-09 13:40 51.36384 -3.80985 32697 ft 699 kts 267°
2026-05-09 13:40 51.36286 -3.88715 33322 ft 712 kts 266°
2026-05-09 13:41 51.36176 -3.96740 33850 ft 726 kts 266°
2026-05-09 13:41 51.36061 -4.04813 34416 ft 739 kts 267°
2026-05-09 13:41 51.35938 -4.13115 34957 ft 752 kts 267°
2026-05-09 13:41 51.35803 -4.21505 35495 ft 765 kts 267°
2026-05-09 13:42 51.35665 -4.30012 35990 ft 777 kts 267°
2026-05-09 13:42 51.35516 -4.38684 36441 ft 789 kts 267°
2026-05-09 13:42 51.35362 -4.47444 36893 ft 800 kts 267°
2026-05-09 13:42 51.35195 -4.56358 37255 ft 812 kts 267°
2026-05-09 13:43 51.35022 -4.65379 37653 ft 823 kts 266°
2026-05-09 13:43 51.34834 -4.74644 38059 ft 834 kts 266°
2026-05-09 13:43 51.34640 -4.84003 38429 ft 846 kts 267°
2026-05-09 13:43 51.34435 -4.93428 38805 ft 857 kts 267°
2026-05-09 13:44 51.34217 -5.03095 39246 ft 868 kts 267°
2026-05-09 13:44 51.33986 -5.12965 39613 ft 880 kts 267°
2026-05-09 13:44 51.33750 -5.22746 40034 ft 892 kts 267°
2026-05-09 13:44 51.33499 -5.32771 40456 ft 904 kts 267°
2026-05-09 13:45 51.33237 -5.42848 40869 ft 916 kts 267°
2026-05-09 13:45 51.32962 -5.53119 41340 ft 929 kts 267°
2026-05-09 13:45 51.32673 -5.63610 41805 ft 943 kts 267°
2026-05-09 13:45 51.32373 -5.74095 42272 ft 957 kts 266°
2026-05-09 13:46 51.32059 -5.84761 42814 ft 971 kts 266°
2026-05-09 13:46 51.31732 -5.95550 43349 ft 987 kts 266°
2026-05-09 13:46 51.31389 -6.06438 43873 ft 998 kts 266°
2026-05-09 13:46 51.31030 -6.17586 44135 ft 1008 kts 266°
2026-05-09 13:47 51.30664 -6.28657 44502 ft 1015 kts 266°
2026-05-09 13:47 51.30275 -6.40039 44772 ft 1023 kts 266°
2026-05-09 13:47 51.29881 -6.51280 45103 ft 1030 kts 266°
2026-05-09 13:47 51.29469 -6.62661 45358 ft 1037 kts 266°
2026-05-09 13:48 51.29044 -6.74145 45656 ft 1044 kts 266°
2026-05-09 13:48 51.28601 -6.85743 45907 ft 1051 kts 266°
2026-05-09 13:48 51.28148 -6.97373 46177 ft 1057 kts 266°
2026-05-09 13:48 51.27673 -7.09220 46421 ft 1063 kts 266°
2026-05-09 13:49 51.27190 -7.20962 46667 ft 1069 kts 266°
2026-05-09 13:49 51.26694 -7.32751 46878 ft 1076 kts 266°
2026-05-09 13:49 51.26183 -7.44585 47110 ft 1081 kts 266°
2026-05-09 13:49 51.25656 -7.56544 47355 ft 1087 kts 266°
2026-05-09 13:50 51.25118 -7.68449 47546 ft 1093 kts 265°
2026-05-09 13:50 51.24558 -7.80556 47808 ft 1099 kts 265°
2026-05-09 13:50 51.23985 -7.92681 48025 ft 1105 kts 265°
2026-05-09 13:50 51.23398 -8.04823 48283 ft 1111 kts 265°
2026-05-09 13:51 51.22794 -8.17087 48559 ft 1118 kts 265°
2026-05-09 13:51 51.22165 -8.29551 48823 ft 1124 kts 265°
2026-05-09 13:51 51.21528 -8.41935 49136 ft 1132 kts 265°
2026-05-09 13:51 51.20874 -8.54376 49446 ft 1140 kts 265°
2026-05-09 13:52 51.20200 -8.66945 49812 ft 1148 kts 264°
2026-05-09 13:52 51.19507 -8.79603 50230 ft 1158 kts 264°
2026-05-09 13:52 51.18795 -8.92366 50628 ft 1166 kts 264°
2026-05-09 13:52 51.18068 -9.05133 51000 ft 1166 kts 264°
2026-05-09 13:53 51.17328 -9.17882 51252 ft 1166 kts 264°
2026-05-09 13:53 51.16574 -9.30631 51405 ft 1166 kts 264°
2026-05-09 13:53 51.15796 -9.43520 51527 ft 1166 kts 264°
2026-05-09 13:53 51.15017 -9.56212 51633 ft 1166 kts 264°
2026-05-09 13:54 51.13409 -9.81716 51821 ft 1165 kts 264°
2026-05-09 13:54 51.11745 -10.07227 51980 ft 1165 kts 264°
2026-05-09 13:55 51.10022 -10.32762 52122 ft 1165 kts 264°
2026-05-09 13:55 51.08245 -10.58274 52248 ft 1165 kts 264°
2026-05-09 13:56 51.06408 -10.83808 52363 ft 1165 kts 263°
2026-05-09 13:56 51.04528 -11.09149 52440 ft 1165 kts 263°
2026-05-09 13:57 51.02575 -11.34699 52490 ft 1166 kts 263°
2026-05-09 13:57 51.00577 -11.60099 52539 ft 1166 kts 263°
2026-05-09 13:58 50.98527 -11.85447 52588 ft 1166 kts 262°
2026-05-09 13:58 50.96421 -12.10792 52641 ft 1168 kts 262°
2026-05-09 13:59 50.94257 -12.36139 52695 ft 1168 kts 262°
2026-05-09 13:59 50.92021 -12.61660 52744 ft 1169 kts 262°
2026-05-09 14:00 50.90505 -12.78600 52788 ft 1168 kts 262°
2026-05-09 14:00 50.87410 -13.12343 52931 ft 1168 kts 262°
2026-05-09 14:01 50.85019 -13.37672 52986 ft 1168 kts 262°
2026-05-09 14:01 50.82581 -13.62891 53008 ft 1168 kts 262°
2026-05-09 14:02 50.80091 -13.88078 53051 ft 1167 kts 261°
2026-05-09 14:02 50.77540 -14.13288 53119 ft 1168 kts 261°
2026-05-09 14:03 50.74938 -14.38448 53191 ft 1167 kts 261°
2026-05-09 14:03 50.72267 -14.63715 53256 ft 1167 kts 261°
2026-05-09 14:04 50.69548 -14.88896 53338 ft 1166 kts 260°
2026-05-09 14:04 50.67435 -15.14160 53320 ft 1165 kts 271°
2026-05-09 14:05 50.69199 -15.39263 53284 ft 1166 kts 286°
2026-05-09 14:05 50.72462 -15.64171 53370 ft 1165 kts 272°
2026-05-09 14:06 50.72304 -15.89715 53434 ft 1166 kts 272°
2026-05-09 14:06 50.73801 -16.14870 53557 ft 1164 kts 272°
2026-05-09 14:07 50.74686 -16.40231 53786 ft 1164 kts 275°
2026-05-09 14:07 50.75660 -16.65673 53925 ft 1164 kts 273°
2026-05-09 14:08 50.76612 -16.91242 53940 ft 1165 kts 273°
2026-05-09 14:08 50.77481 -17.16793 53952 ft 1166 kts 273°
2026-05-09 14:09 50.78281 -17.42158 54014 ft 1166 kts 273°
2026-05-09 14:09 50.79030 -17.67538 54056 ft 1166 kts 272°
2026-05-09 14:10 50.80062 -18.05975 54082 ft 1166 kts 272°
2026-05-09 14:11 50.80677 -18.31537 54084 ft 1168 kts 272°
2026-05-09 14:11 50.81234 -18.56965 54123 ft 1168 kts 272°
2026-05-09 14:12 50.81739 -18.82580 54179 ft 1170 kts 272°
2026-05-09 14:12 50.82186 -19.08143 54225 ft 1170 kts 272°
2026-05-09 14:13 50.82580 -19.33858 54247 ft 1169 kts 272°
2026-05-09 14:14 50.83537 -20.23456 54398 ft 1171 kts 271°
2026-05-09 14:15 50.83622 -20.36121 54431 ft 1172 kts 271°
2026-05-09 14:15 50.83762 -20.61814 54523 ft 1172 kts 271°
2026-05-09 14:16 50.83844 -20.87526 54558 ft 1172 kts 270°
2026-05-09 14:16 50.83868 -21.13536 54611 ft 1172 kts 270°
2026-05-09 14:17 50.83837 -21.39259 54626 ft 1172 kts 271°
2026-05-09 14:17 50.83748 -21.65169 54695 ft 1172 kts 270°
2026-05-09 14:18 50.83602 -21.90964 54745 ft 1172 kts 270°
2026-05-09 14:18 50.83400 -22.16741 54775 ft 1172 kts 270°
2026-05-09 14:19 50.83142 -22.42423 54863 ft 1171 kts 270°
2026-05-09 14:19 50.82824 -22.68300 54962 ft 1172 kts 269°
2026-05-09 14:20 50.82450 -22.94228 55050 ft 1173 kts 269°
2026-05-09 14:20 50.82021 -23.19963 55026 ft 1173 kts 269°
2026-05-09 14:21 50.81271 -23.58537 55086 ft 1173 kts 269°
2026-05-09 14:21 50.80697 -23.84414 55089 ft 1174 kts 269°
2026-05-09 14:22 50.80066 -24.10248 55050 ft 1175 kts 269°
2026-05-09 14:22 50.79384 -24.35877 55006 ft 1176 kts 269°
2026-05-09 14:23 50.78638 -24.61744 54968 ft 1176 kts 269°
2026-05-09 14:23 50.77835 -24.87607 54963 ft 1177 kts 268°
2026-05-09 14:24 50.76982 -25.13241 54981 ft 1176 kts 268°
2026-05-09 14:24 50.76062 -25.39205 55011 ft 1176 kts 268°
2026-05-09 14:25 50.75092 -25.64912 55048 ft 1176 kts 268°
2026-05-09 14:25 50.74065 -25.90647 55074 ft 1175 kts 267°
2026-05-09 14:26 50.72981 -26.16349 55157 ft 1174 kts 267°
2026-05-09 14:26 50.71840 -26.42065 55213 ft 1173 kts 267°
2026-05-09 14:27 50.70645 -26.67734 55253 ft 1173 kts 266°
2026-05-09 14:27 50.69408 -26.93090 55336 ft 1173 kts 266°
2026-05-09 14:28 50.68105 -27.18650 55367 ft 1173 kts 266°
2026-05-09 14:28 50.66749 -27.44139 55359 ft 1173 kts 266°
2026-05-09 14:29 50.65332 -27.69704 55374 ft 1173 kts 265°
2026-05-09 14:29 50.63866 -27.95128 55372 ft 1173 kts 266°
2026-05-09 14:30 50.62338 -28.20663 55400 ft 1173 kts 266°
2026-05-09 14:30 50.60743 -28.46354 55402 ft 1172 kts 266°
2026-05-09 14:31 50.59101 -28.71891 55422 ft 1173 kts 265°
2026-05-09 14:31 50.57420 -28.97145 55447 ft 1173 kts 265°
2026-05-09 14:32 50.55678 -29.22489 55408 ft 1173 kts 265°
2026-05-09 14:32 50.53878 -29.47844 55375 ft 1172 kts 265°
2026-05-09 14:33 50.52024 -29.73178 55359 ft 1172 kts 264°
2026-05-09 14:33 50.50087 -29.98518 55376 ft 1173 kts 264°
2026-05-09 14:34 50.48181 -30.23723 55392 ft 1174 kts 262°
2026-05-09 14:34 50.46097 -30.49164 55467 ft 1173 kts 264°
2026-05-09 14:35 50.43932 -30.74656 55537 ft 1172 kts 264°
2026-05-09 14:35 50.41763 -30.99951 55593 ft 1172 kts 263°
2026-05-09 14:36 50.39557 -31.25165 55606 ft 1172 kts 263°
2026-05-09 14:36 50.37263 -31.50639 55633 ft 1171 kts 263°
2026-05-09 14:37 50.34937 -31.75801 55683 ft 1171 kts 262°
2026-05-09 14:37 50.32549 -32.01018 55714 ft 1170 kts 263°
2026-05-09 14:38 50.30115 -32.26158 55743 ft 1169 kts 262°
2026-05-09 14:38 50.27620 -32.51321 55781 ft 1167 kts 262°
2026-05-09 14:39 50.25085 -32.76313 55836 ft 1167 kts 262°
2026-05-09 14:39 50.22478 -33.01465 55893 ft 1166 kts 262°
2026-05-09 14:40 50.19844 -33.26346 55915 ft 1166 kts 262°
2026-05-09 14:40 50.17131 -33.51411 55981 ft 1164 kts 262°
2026-05-09 14:41 50.14379 -33.76326 56008 ft 1163 kts 261°
2026-05-09 14:41 50.11575 -34.01204 55952 ft 1163 kts 261°
2026-05-09 14:42 50.08727 -34.25974 55968 ft 1163 kts 261°
2026-05-09 14:42 50.05818 -34.50778 56013 ft 1161 kts 261°
2026-05-09 14:43 50.02879 -34.75363 56087 ft 1161 kts 259°
2026-05-09 14:43 49.99895 -34.99866 56116 ft 1158 kts 260°
2026-05-09 14:44 49.96862 -35.24326 56095 ft 1158 kts 259°
2026-05-09 14:44 49.93771 -35.48793 56112 ft 1157 kts 259°
2026-05-09 14:45 49.90626 -35.73244 56127 ft 1157 kts 259°
2026-05-09 14:45 49.87452 -35.97510 56130 ft 1156 kts 259°
2026-05-09 14:46 49.84237 -36.21669 56153 ft 1155 kts 259°
2026-05-09 14:46 49.80930 -36.46095 56244 ft 1154 kts 259°
2026-05-09 14:47 49.77610 -36.70215 56236 ft 1154 kts 258°
2026-05-09 14:47 49.74221 -36.94440 56198 ft 1153 kts 258°
2026-05-09 14:48 49.70799 -37.18505 56166 ft 1153 kts 258°
2026-05-09 14:48 49.67314 -37.42622 56150 ft 1153 kts 258°
2026-05-09 14:49 49.63795 -37.66607 56132 ft 1151 kts 257°
2026-05-09 14:49 49.60236 -37.90491 56117 ft 1150 kts 257°
2026-05-09 14:50 49.56611 -38.14444 56160 ft 1149 kts 257°
2026-05-09 14:50 49.52952 -38.38270 56192 ft 1149 kts 257°
2026-05-09 14:51 49.49218 -38.62223 56283 ft 1148 kts 257°
2026-05-09 14:51 49.45476 -38.85883 56324 ft 1146 kts 256°
2026-05-09 14:52 49.41692 -39.09463 56314 ft 1145 kts 256°
2026-05-09 14:52 49.37856 -39.33037 56288 ft 1145 kts 256°
2026-05-09 14:53 49.33943 -39.56746 56254 ft 1146 kts 256°
2026-05-09 14:53 49.30004 -39.80283 56218 ft 1146 kts 255°
2026-05-09 14:54 49.25997 -40.03727 56195 ft 1146 kts 257°
2026-05-09 14:54 49.21973 -40.27244 56222 ft 1145 kts 255°
2026-05-09 14:55 49.17901 -40.50879 56345 ft 1143 kts 255°
2026-05-09 14:55 49.13781 -40.74194 56433 ft 1143 kts 255°
2026-05-09 14:56 49.09631 -40.97387 56436 ft 1141 kts 255°
2026-05-09 14:56 49.05413 -41.20720 56407 ft 1141 kts 255°
2026-05-09 14:57 49.01194 -41.43770 56323 ft 1142 kts 255°
2026-05-09 14:57 48.96897 -41.66938 56263 ft 1142 kts 254°
2026-05-09 14:58 48.92535 -41.90162 56228 ft 1143 kts 254°
2026-05-09 14:58 48.88163 -42.13161 56241 ft 1144 kts 254°
2026-05-09 14:59 48.83722 -42.36241 56275 ft 1142 kts 254°
2026-05-09 14:59 48.79244 -42.59229 56314 ft 1140 kts 254°
2026-05-09 15:00 48.74741 -42.82074 56347 ft 1140 kts 253°
2026-05-09 15:00 48.70170 -43.04991 56329 ft 1139 kts 253°
2026-05-09 15:01 48.63238 -43.39237 56223 ft 1141 kts 253°
2026-05-09 15:02 48.58586 -43.61897 56176 ft 1142 kts 253°
2026-05-09 15:02 48.53844 -43.84731 56153 ft 1141 kts 252°
2026-05-09 15:03 48.49081 -44.07410 56187 ft 1140 kts 252°
2026-05-09 15:03 48.44272 -44.30058 56300 ft 1138 kts 252°
2026-05-09 15:04 48.39443 -44.52542 56353 ft 1136 kts 252°
2026-05-09 15:06 48.19709 -45.41980 56431 ft 1133 kts 251°
2026-05-09 15:06 48.14655 -45.64280 56404 ft 1132 kts 251°
2026-05-09 15:07 48.09607 -45.86330 56382 ft 1132 kts 250°
2026-05-09 15:07 48.04461 -46.08571 56379 ft 1134 kts 250°
2026-05-09 15:08 47.99324 -46.30549 56378 ft 1135 kts 250°
2026-05-09 15:08 47.91456 -46.63794 56364 ft 1136 kts 250°
2026-05-09 15:10 47.70048 -47.51774 56257 ft 1141 kts 250°
2026-05-09 15:11 47.64570 -47.73739 56277 ft 1143 kts 249°
2026-05-09 15:11 47.59033 -47.95730 56282 ft 1144 kts 249°
2026-05-09 15:12 47.53457 -48.17664 56269 ft 1146 kts 249°
2026-05-09 15:12 47.47837 -48.39552 56259 ft 1147 kts 249°
2026-05-09 15:13 47.42168 -48.61431 56284 ft 1149 kts 249°
2026-05-09 15:13 47.36406 -48.83456 56329 ft 1150 kts 248°
2026-05-09 15:14 47.30630 -49.05322 56388 ft 1152 kts 248°
2026-05-09 15:14 47.24821 -49.27113 56403 ft 1151 kts 248°
2026-05-09 15:15 47.19912 -49.45373 56407 ft 1152 kts 248°
2026-05-09 15:15 47.12997 -49.70848 56410 ft 1152 kts 247°
2026-05-09 15:16 47.07054 -49.92529 56441 ft 1153 kts 247°
2026-05-09 15:16 47.01051 -50.14199 56536 ft 1152 kts 248°
2026-05-09 15:17 46.95015 -50.35702 56672 ft 1149 kts 248°
2026-05-09 15:17 46.88969 -50.57202 56733 ft 1148 kts 247°
2026-05-09 15:18 46.82905 -50.78538 56825 ft 1146 kts 246°
2026-05-09 15:18 46.76776 -50.99870 56902 ft 1145 kts 246°
2026-05-09 15:19 46.70596 -51.21198 56946 ft 1145 kts 246°
2026-05-09 15:19 46.64418 -51.42339 56964 ft 1145 kts 246°
2026-05-09 15:20 46.55055 -51.74041 56944 ft 1145 kts 246°
2026-05-09 15:21 46.48754 -51.95151 56947 ft 1147 kts 246°
2026-05-09 15:21 46.42393 -52.16284 56949 ft 1146 kts 246°
2026-05-09 15:22 46.36023 -52.37269 56953 ft 1146 kts 246°
2026-05-09 15:22 46.29611 -52.58214 56958 ft 1146 kts 246°
2026-05-09 15:23 46.23111 -52.79272 56973 ft 1146 kts 245°
2026-05-09 15:23 46.16668 -52.99974 56989 ft 1145 kts 245°
2026-05-09 15:24 46.11463 -53.21595 56756 ft 1147 kts 252°
2026-05-09 15:24 46.06235 -53.43186 56809 ft 1146 kts 251°
2026-05-09 15:25 46.01105 -53.64682 56844 ft 1146 kts 250°
2026-05-09 15:25 45.95839 -53.86217 56855 ft 1146 kts 249°
2026-05-09 15:26 45.87861 -54.18323 56988 ft 1144 kts 250°
2026-05-09 15:26 45.82476 -54.39770 57092 ft 1143 kts 250°
2026-05-09 15:27 45.77095 -54.60995 57169 ft 1142 kts 250°
2026-05-09 15:27 45.71642 -54.82315 57237 ft 1142 kts 249°
2026-05-09 15:28 45.66184 -55.03464 57307 ft 1141 kts 249°
2026-05-09 15:28 45.60677 -55.24604 57312 ft 1142 kts 249°
2026-05-09 15:29 45.55133 -55.45702 57319 ft 1142 kts 249°
2026-05-09 15:29 45.49538 -55.66800 57322 ft 1142 kts 248°
2026-05-09 15:30 45.43904 -55.87856 57347 ft 1142 kts 248°
2026-05-09 15:30 45.38230 -56.08877 57386 ft 1142 kts 248°
2026-05-09 15:31 45.32509 -56.29886 57413 ft 1142 kts 248°
2026-05-09 15:31 45.26778 -56.50748 57416 ft 1142 kts 248°
2026-05-09 15:32 45.21006 -56.71577 57486 ft 1141 kts 247°
2026-05-09 15:32 45.15145 -56.92551 57678 ft 1140 kts 248°
2026-05-09 15:33 45.09296 -57.13307 57825 ft 1143 kts 248°
2026-05-09 15:33 45.06330 -57.23761 57929 ft 1141 kts 248°
2026-05-09 15:33 45.03383 -57.34107 57983 ft 1140 kts 248°
2026-05-09 15:34 44.97394 -57.54997 58034 ft 1140 kts 248°
2026-05-09 15:34 44.91376 -57.75815 58040 ft 1138 kts 247°
2026-05-09 15:35 44.85394 -57.96338 58017 ft 1137 kts 247°
2026-05-09 15:35 44.79348 -58.16907 57982 ft 1138 kts 247°
2026-05-09 15:36 44.73271 -58.37415 57952 ft 1138 kts 247°
2026-05-09 15:36 44.67173 -58.57828 57965 ft 1138 kts 247°
2026-05-09 15:37 44.61021 -58.78260 58035 ft 1139 kts 246°
2026-05-09 15:37 44.54847 -58.98598 58062 ft 1138 kts 246°
2026-05-09 15:38 44.48600 -59.19013 58038 ft 1139 kts 246°
2026-05-09 15:38 44.42390 -59.39148 57988 ft 1139 kts 246°
2026-05-09 15:39 44.36083 -59.59436 58021 ft 1139 kts 246°
2026-05-09 15:39 44.29769 -59.79590 58023 ft 1141 kts 246°
2026-05-09 15:40 44.23399 -59.99770 58028 ft 1141 kts 246°
2026-05-09 15:40 44.17990 -60.20370 57905 ft 1140 kts 249°
2026-05-09 15:41 44.12377 -60.40855 57949 ft 1139 kts 250°
2026-05-09 15:41 44.06841 -60.61399 57978 ft 1139 kts 249°
2026-05-09 15:42 44.01285 -60.81848 57969 ft 1138 kts 249°
2026-05-09 15:42 43.95663 -61.02278 57957 ft 1138 kts 249°
2026-05-09 15:43 43.90012 -61.22635 58096 ft 1136 kts 249°
2026-05-09 15:43 43.84323 -61.42971 58202 ft 1134 kts 249°
2026-05-09 15:44 43.78646 -61.63104 58335 ft 1132 kts 249°
2026-05-09 15:44 43.72891 -61.83346 58394 ft 1130 kts 248°
2026-05-09 15:45 43.67163 -62.03333 58418 ft 1130 kts 248°
2026-05-09 15:45 43.61367 -62.23391 58412 ft 1132 kts 248°
2026-05-09 15:46 43.55498 -62.43545 58369 ft 1133 kts 248°
2026-05-09 15:46 43.49625 -62.63548 58376 ft 1134 kts 248°
2026-05-09 15:47 43.43724 -62.83496 58387 ft 1135 kts 247°
2026-05-09 15:47 43.37752 -63.03522 58435 ft 1135 kts 247°
2026-05-09 15:48 43.31761 -63.23459 58446 ft 1134 kts 248°
2026-05-09 15:48 43.25760 -63.43272 58496 ft 1133 kts 248°
2026-05-09 15:49 43.19719 -63.63068 58485 ft 1133 kts 248°
2026-05-09 15:49 43.13614 -63.82922 58530 ft 1131 kts 247°
2026-05-09 15:50 43.07519 -64.02592 58614 ft 1130 kts 247°
2026-05-09 15:50 43.01363 -64.22312 58635 ft 1129 kts 247°
2026-05-09 15:51 42.95217 -64.41853 58642 ft 1129 kts 247°
2026-05-09 15:51 42.89012 -64.61438 58660 ft 1127 kts 247°
2026-05-09 15:52 42.79675 -64.90637 58676 ft 1129 kts 246°
2026-05-09 15:53 42.72923 -65.09932 58730 ft 1129 kts 243°
2026-05-09 15:53 42.65959 -65.28811 58739 ft 1128 kts 243°
2026-05-09 15:54 42.58868 -65.47684 58682 ft 1128 kts 243°
2026-05-09 15:54 42.51708 -65.66621 58640 ft 1128 kts 243°
2026-05-09 15:55 42.44506 -65.85573 58661 ft 1128 kts 243°
2026-05-09 15:55 42.37292 -66.04436 58659 ft 1129 kts 243°
2026-05-09 15:56 42.30090 -66.23136 58668 ft 1130 kts 243°
2026-05-09 15:56 42.22850 -66.41901 58660 ft 1130 kts 243°
2026-05-09 15:57 42.15666 -66.60535 58639 ft 1130 kts 243°
2026-05-09 15:57 42.08438 -66.79290 58632 ft 1130 kts 243°
2026-05-09 15:58 42.01659 -66.98112 58534 ft 1130 kts 251°
2026-05-09 15:58 41.99404 -67.08139 58368 ft 1129 kts 260°
2026-05-09 15:58 41.98247 -67.18630 58277 ft 1129 kts 268°
2026-05-09 15:59 41.98617 -67.39585 58468 ft 1131 kts 278°
2026-05-09 15:59 42.01258 -67.60245 58595 ft 1132 kts 280°
2026-05-09 16:00 42.04250 -67.81016 58692 ft 1130 kts 280°
2026-05-09 16:00 42.04733 -67.84360 58708 ft 1117 kts 280°
2026-05-09 16:00 42.07032 -68.00125 57837 ft 951 kts 280°
2026-05-09 16:00 42.08298 -68.08713 56488 ft 921 kts 280°
2026-05-09 16:01 42.09505 -68.16864 55150 ft 882 kts 280°
2026-05-09 16:01 42.10684 -68.24805 54736 ft 860 kts 280°
2026-05-09 16:01 42.11849 -68.32635 54701 ft 847 kts 280°
2026-05-09 16:01 42.12852 -68.40334 54419 ft 834 kts 274°
2026-05-09 16:02 42.13009 -68.48032 53805 ft 820 kts 263°
2026-05-09 16:02 42.11296 -68.62932 52544 ft 798 kts 262°
2026-05-09 16:02 42.10506 -68.70229 52404 ft 787 kts 261°
2026-05-09 16:03 42.09721 -68.77460 52025 ft 779 kts 261°
2026-05-09 16:03 42.08940 -68.84672 51645 ft 771 kts 261°
2026-05-09 16:03 42.08182 -68.91672 51292 ft 764 kts 261°
2026-05-09 16:03 42.07412 -68.98769 50714 ft 761 kts 261°
2026-05-09 16:04 42.06659 -69.05718 50037 ft 758 kts 261°
2026-05-09 16:04 42.05931 -69.12582 49321 ft 705 kts 264°
2026-05-09 16:04 42.05745 -69.18954 48148 ft 676 kts 274°
2026-05-09 16:04 42.06470 -69.24908 46099 ft 641 kts 284°
2026-05-09 16:05 42.07529 -69.30469 43784 ft 606 kts 276°
2026-05-09 16:05 42.07746 -69.35855 41420 ft 559 kts 265°
2026-05-09 16:05 42.07534 -69.40826 39297 ft 528 kts 269°
2026-05-09 16:05 42.07513 -69.45618 37728 ft 504 kts 268°
2026-05-09 16:06 42.07368 -69.50191 37647 ft 492 kts 267°
2026-05-09 16:06 42.07249 -69.54846 37917 ft 501 kts 268°
2026-05-09 16:06 42.07130 -69.59525 37351 ft 501 kts 267°
2026-05-09 16:06 42.06986 -69.64158 36443 ft 503 kts 267°
2026-05-09 16:07 42.06855 -69.68818 35877 ft 504 kts 266°
2026-05-09 16:07 42.06707 -69.73564 34494 ft 521 kts 266°
2026-05-09 16:07 42.06552 -69.78458 33698 ft 515 kts 266°
2026-05-09 16:07 42.06416 -69.82964 35595 ft 469 kts 266°
2026-05-09 16:08 42.06276 -69.87315 35869 ft 479 kts 266°
2026-05-09 16:08 42.06126 -69.91859 35001 ft 513 kts 267°
2026-05-09 16:08 42.05969 -69.96762 33116 ft 540 kts 267°
2026-05-09 16:08 42.05803 -70.01794 32358 ft 533 kts 267°
2026-05-09 16:09 42.05648 -70.06521 32433 ft 488 kts 266°
2026-05-09 16:09 42.05508 -70.11008 32645 ft 489 kts 266°
2026-05-09 16:09 42.05346 -70.15581 32220 ft 489 kts 266°
2026-05-09 16:09 42.05180 -70.20113 31473 ft 484 kts 266°
2026-05-09 16:10 42.05032 -70.24551 30863 ft 473 kts 266°
2026-05-09 16:10 42.04870 -70.28941 30470 ft 469 kts 266°
2026-05-09 16:10 42.04716 -70.33316 30165 ft 466 kts 266°
2026-05-09 16:10 42.04558 -70.37679 29684 ft 467 kts 266°
2026-05-09 16:11 42.04335 -70.42143 28975 ft 491 kts 261°
2026-05-09 16:11 42.03372 -70.46564 28662 ft 498 kts 246°
2026-05-09 16:11 42.01827 -70.50710 28405 ft 498 kts 248°
2026-05-09 16:11 42.00532 -70.54975 28196 ft 494 kts 250°
2026-05-09 16:12 41.99205 -70.59204 28033 ft 492 kts 248°
2026-05-09 16:12 41.97859 -70.63419 27945 ft 491 kts 249°
2026-05-09 16:12 41.96536 -70.67649 27993 ft 491 kts 248°
2026-05-09 16:12 41.95199 -70.71852 28004 ft 492 kts 248°
2026-05-09 16:13 41.93872 -70.76060 27989 ft 493 kts 248°
2026-05-09 16:13 41.92531 -70.80294 27985 ft 494 kts 248°
2026-05-09 16:13 41.91179 -70.84553 27980 ft 494 kts 248°
2026-05-09 16:13 41.89834 -70.88779 27985 ft 494 kts 248°
2026-05-09 16:14 41.88496 -70.92986 27986 ft 494 kts 248°
2026-05-09 16:14 41.87139 -70.97244 27987 ft 494 kts 248°
2026-05-09 16:14 41.85791 -71.01461 27972 ft 493 kts 248°
2026-05-09 16:14 41.84453 -71.05645 27972 ft 494 kts 248°
2026-05-09 16:15 41.83100 -71.09871 27989 ft 494 kts 248°
2026-05-09 16:15 41.81735 -71.14134 27984 ft 494 kts 248°
2026-05-09 16:15 41.80378 -71.18353 27983 ft 494 kts 248°
2026-05-09 16:15 41.79019 -71.22573 27989 ft 493 kts 248°
2026-05-09 16:16 41.77661 -71.26788 27984 ft 492 kts 248°
2026-05-09 16:16 41.76299 -71.31009 27971 ft 493 kts 248°
2026-05-09 16:16 41.74936 -71.35216 27987 ft 494 kts 248°
2026-05-09 16:16 41.73569 -71.39432 27977 ft 494 kts 248°
2026-05-09 16:17 41.71934 -71.43461 27971 ft 497 kts 234°
2026-05-09 16:17 41.69429 -71.46744 28069 ft 508 kts 220°
2026-05-09 16:17 41.66564 -71.49511 27888 ft 508 kts 223°
2026-05-09 16:17 41.63881 -71.52567 27618 ft 505 kts 225°
2026-05-09 16:18 41.61199 -71.55533 27320 ft 501 kts 223°
2026-05-09 16:18 41.58509 -71.58498 27044 ft 500 kts 224°
2026-05-09 16:18 41.55837 -71.61483 26759 ft 499 kts 224°
2026-05-09 16:18 41.53196 -71.64406 26479 ft 497 kts 224°
2026-05-09 16:19 41.50539 -71.67357 26207 ft 495 kts 223°
2026-05-09 16:19 41.47917 -71.70265 25959 ft 494 kts 223°
2026-05-09 16:19 41.45279 -71.73190 25690 ft 491 kts 223°
2026-05-09 16:19 41.42669 -71.76079 25427 ft 490 kts 223°
2026-05-09 16:20 41.40034 -71.78989 25045 ft 487 kts 223°
2026-05-09 16:20 41.37463 -71.81829 24658 ft 486 kts 223°
2026-05-09 16:20 41.34871 -71.84689 24290 ft 483 kts 223°
2026-05-09 16:20 41.32297 -71.87524 24094 ft 481 kts 223°
2026-05-09 16:21 41.29728 -71.90353 23955 ft 478 kts 223°
2026-05-09 16:21 41.27171 -71.93168 24079 ft 480 kts 223°
2026-05-09 16:21 41.24580 -71.96014 23949 ft 481 kts 223°
2026-05-09 16:21 41.22023 -71.98818 23992 ft 482 kts 223°
2026-05-09 16:22 41.19458 -72.01630 23645 ft 482 kts 223°
2026-05-09 16:22 41.16886 -72.04444 23231 ft 477 kts 223°
2026-05-09 16:22 41.14318 -72.07260 22828 ft 475 kts 223°
2026-05-09 16:22 41.11800 -72.10019 22434 ft 471 kts 224°
2026-05-09 16:23 41.09614 -72.13200 22065 ft 478 kts 240°
2026-05-09 16:23 41.08290 -72.17220 21762 ft 487 kts 256°
2026-05-09 16:23 41.07511 -72.21607 21255 ft 486 kts 253°
2026-05-09 16:23 41.06468 -72.25796 20673 ft 481 kts 251°
2026-05-09 16:24 41.05436 -72.30026 20063 ft 477 kts 253°
2026-05-09 16:24 41.04436 -72.34156 19461 ft 475 kts 252°
2026-05-09 16:24 41.03399 -72.38314 18825 ft 472 kts 252°
2026-05-09 16:24 41.02386 -72.42403 18213 ft 469 kts 252°
2026-05-09 16:25 41.01368 -72.46487 17576 ft 466 kts 252°
2026-05-09 16:25 41.00695 -72.49180 17126 ft 464 kts 252°
2026-05-09 16:25 40.99363 -72.54515 16206 ft 459 kts 251°
2026-05-09 16:25 40.98372 -72.58457 15523 ft 456 kts 251°
2026-05-09 16:26 40.97371 -72.62440 14828 ft 452 kts 251°
2026-05-09 16:26 40.96372 -72.66406 14114 ft 450 kts 250°
2026-05-09 16:26 40.95390 -72.70291 13425 ft 446 kts 250°
2026-05-09 16:26 40.94417 -72.74134 12929 ft 443 kts 250°
2026-05-09 16:27 40.93401 -72.77957 12533 ft 441 kts 245°
2026-05-09 16:27 40.91821 -72.81325 11907 ft 435 kts 226°
2026-05-09 16:27 40.89440 -72.83755 11302 ft 433 kts 211°
2026-05-09 16:27 40.86885 -72.85808 10651 ft 429 kts 216°
2026-05-09 16:28 40.84497 -72.88131 10209 ft 417 kts 216°
2026-05-09 16:28 40.82203 -72.90254 10199 ft 395 kts 216°
2026-05-09 16:28 40.80021 -72.92320 10115 ft 378 kts 217°
2026-05-09 16:28 40.77941 -72.94300 10026 ft 354 kts 216°
2026-05-09 16:29 40.76044 -72.96102 9902 ft 318 kts 217°
2026-05-09 16:29 40.74398 -72.97671 9755 ft 270 kts 216°
2026-05-09 16:29 40.72927 -72.99071 9530 ft 256 kts 217°
2026-05-09 16:29 40.71488 -73.00446 8981 ft 253 kts 217°
2026-05-09 16:30 40.70075 -73.01791 8570 ft 253 kts 216°
2026-05-09 16:30 40.68774 -73.03332 8166 ft 254 kts 237°
2026-05-09 16:30 40.68276 -73.05549 7868 ft 264 kts 269°
2026-05-09 16:30 40.68500 -73.07970 7562 ft 265 kts 268°
2026-05-09 16:31 40.68538 -73.10360 7177 ft 260 kts 264°
2026-05-09 16:31 40.68547 -73.12746 6781 ft 260 kts 266°
2026-05-09 16:31 40.68590 -73.15148 6380 ft 259 kts 265°
2026-05-09 16:31 40.68610 -73.17520 5982 ft 258 kts 265°
2026-05-09 16:32 40.68630 -73.19859 5587 ft 256 kts 265°
2026-05-09 16:32 40.68641 -73.21425 5320 ft 254 kts 265°
2026-05-09 16:32 40.68657 -73.24515 4821 ft 255 kts 265°
2026-05-09 16:32 40.68666 -73.26823 4449 ft 253 kts 265°
2026-05-09 16:33 40.68677 -73.29125 4171 ft 252 kts 265°
2026-05-09 16:33 40.68685 -73.31396 4040 ft 250 kts 265°
2026-05-09 16:33 40.68694 -73.33688 3956 ft 250 kts 265°
2026-05-09 16:33 40.68699 -73.36010 3968 ft 250 kts 265°
2026-05-09 16:34 40.68931 -73.38292 3997 ft 260 kts 289°
2026-05-09 16:34 40.69941 -73.40308 4032 ft 272 kts 308°
2026-05-09 16:34 40.71267 -73.42097 3974 ft 272 kts 308°
2026-05-09 16:34 40.72567 -73.43909 3966 ft 270 kts 307°
2026-05-09 16:35 40.73859 -73.45701 3754 ft 269 kts 308°
2026-05-09 16:35 40.75144 -73.47485 3402 ft 267 kts 308°
2026-05-09 16:35 40.76428 -73.49286 3041 ft 265 kts 307°
2026-05-09 16:35 40.77697 -73.51071 2706 ft 264 kts 308°
2026-05-09 16:36 40.78950 -73.52846 2332 ft 262 kts 308°
2026-05-09 16:36 40.81810 -73.58629 1961 ft 247 kts 258°
2026-05-09 16:37 40.81198 -73.60677 2052 ft 243 kts 237°
2026-05-09 16:37 40.80331 -73.62538 1923 ft 223 kts 238°
2026-05-09 16:37 40.79583 -73.64249 1897 ft 205 kts 238°
2026-05-09 16:37 40.78862 -73.65868 1971 ft 203 kts 233°
2026-05-09 16:38 40.77947 -73.67275 1981 ft 203 kts 215°
2026-05-09 16:38 40.76712 -73.68111 2023 ft 203 kts 203°
2026-05-09 16:38 40.75426 -73.68947 2032 ft 203 kts 212°
2026-05-09 16:38 40.74210 -73.69888 2030 ft 203 kts 208°
2026-05-09 16:39 40.72954 -73.70746 1962 ft 201 kts 208°
2026-05-09 16:39 40.71749 -73.71602 1641 ft 189 kts 207°
2026-05-09 16:39 40.70565 -73.72353 1426 ft 185 kts 205°
2026-05-09 16:39 40.69402 -73.73032 1187 ft 182 kts 206°
2026-05-09 16:40 40.68350 -73.73779 785 ft 166 kts 210°
2026-05-09 16:40 40.67279 -73.74603 570 ft 187 kts 210°
2026-05-09 16:42 40.58683 -73.79372 3177 ft 246 kts 160°
2026-05-09 16:42 40.57093 -73.78300 3458 ft 260 kts 157°
2026-05-09 16:42 40.55571 -73.76887 3529 ft 272 kts 134°
2026-05-09 16:42 40.54704 -73.74735 3260 ft 278 kts 103°
2026-05-09 16:43 40.54895 -73.72205 3193 ft 289 kts 65°
2026-05-09 16:43 40.56183 -73.70175 3165 ft 296 kts 30°
2026-05-09 16:43 40.57999 -73.68895 3112 ft 294 kts 26°
2026-05-09 16:43 40.59782 -73.67640 3036 ft 294 kts 27°
2026-05-09 16:44 40.61593 -73.66362 2943 ft 292 kts 27°
2026-05-09 16:44 40.63368 -73.65108 2957 ft 291 kts 27°
2026-05-09 16:44 40.65159 -73.63839 2981 ft 293 kts 27°
2026-05-09 16:44 40.66954 -73.62573 2973 ft 292 kts 27°
2026-05-09 16:45 40.68667 -73.61362 2925 ft 269 kts 27°
2026-05-09 16:45 40.70316 -73.60195 2948 ft 265 kts 27°
2026-05-09 16:45 40.71916 -73.59061 2972 ft 263 kts 27°
2026-05-09 16:45 40.73537 -73.57912 2964 ft 265 kts 27°
2026-05-09 16:46 40.75171 -73.56757 2971 ft 264 kts 27°
2026-05-09 16:46 40.76815 -73.55736 2963 ft 264 kts
2026-05-09 16:46 40.78586 -73.55744 2745 ft 245 kts 330°
2026-05-09 16:46 40.79857 -73.57064 2491 ft 223 kts 296°
2026-05-09 16:47 40.80686 -73.58789 2244 ft 220 kts 297°
2026-05-09 16:47 40.81522 -73.60483 2110 ft 222 kts 297°
2026-05-09 16:47 40.82064 -73.62329 1998 ft 213 kts 263°
2026-05-09 16:47 40.81623 -73.64107 2008 ft 205 kts 232°
2026-05-09 16:48 40.80632 -73.65448 1949 ft 204 kts 208°
2026-05-09 16:48 40.79337 -73.66186 1979 ft 203 kts 206°
2026-05-09 16:48 40.78090 -73.67081 1995 ft 203 kts 211°
2026-05-09 16:48 40.76865 -73.67996 2001 ft 205 kts 208°
2026-05-09 16:49 40.75602 -73.68866 1995 ft 202 kts 209°
2026-05-09 16:49 40.74385 -73.69745 1996 ft 202 kts 209°
2026-05-09 16:49 40.73142 -73.70625 1963 ft 201 kts 208°
2026-05-09 16:50 40.70662 -73.72382 1462 ft 201 kts 209°
2026-05-09 16:50 40.69423 -73.73260 1194 ft 204 kts 209°
2026-05-09 16:50 40.68230 -73.74103 892 ft 186 kts 208°
2026-05-09 16:50 40.67144 -73.74870 621 ft 172 kts 208°
2026-05-09 16:51 40.66086 -73.75626 401 ft 171 kts 208°
2026-05-09 16:51 40.65023 -73.76388 220 ft 179 kts 208°
2026-05-09 16:51 40.63929 -73.77211 33 ft 163 kts 209°
2026-05-09 16:51 40.63164 -73.77807 16 ft 63 kts 211°
2026-05-09 16:52 40.62970 -73.78029 16 ft 26 kts 232°
2026-05-09 16:52 40.62849 -73.78117 16 ft 16 kts 185°
2026-05-09 16:52 40.62703 -73.78191 15 ft 23 kts 209°
2026-05-09 16:52 40.62639 -73.78287 13 ft 12 kts 279°
2026-05-09 16:53 40.62667 -73.78352 13 ft 3 kts 315°
2026-05-09 16:53 40.62677 -73.78357 13 ft 1 kts 359°
2026-05-09 16:53 40.62696 -73.78354 13 ft 4 kts 14°
2026-05-09 16:53 40.62742 -73.78327 13 ft 10 kts 29°
2026-05-09 16:54 40.62819 -73.78266 14 ft 15 kts 31°
2026-05-09 16:54 40.62928 -73.78181 15 ft 19 kts 31°
2026-05-09 16:54 40.63016 -73.78111 16 ft 10 kts 31°
2026-05-09 16:54 40.63047 -73.78087 16 ft 2 kts 31°
2026-05-09 16:55 40.63054 -73.78082 16 ft 0 kts 30°
2026-05-09 16:55 40.63057 -73.78079 16 ft 1 kts 30°
2026-05-09 16:55 40.63076 -73.78065 16 ft 0 kts 30°
2026-05-09 16:56 40.63077 -73.78064 16 ft 1 kts 30°
2026-05-09 16:56 40.63151 -73.78023 16 ft 17 kts
2026-05-09 16:57 40.63251 -73.78007 16 ft 8 kts 17°
2026-05-09 16:57 40.63295 -73.77985 16 ft 6 kts 19°
2026-05-09 16:57 40.63353 -73.77954 16 ft 11 kts 25°
2026-05-09 16:57 40.63416 -73.77905 16 ft 10 kts 32°
2026-05-09 16:58 40.63488 -73.77844 16 ft 10 kts 33°
2026-05-09 16:58 40.63530 -73.77819 17 ft 4 kts 353°
2026-05-09 16:58 40.63567 -73.77852 17 ft 7 kts 317°
2026-05-09 16:58 40.63586 -73.77872 18 ft 0 kts 329°